Tracking 19219 objects as of 21-Jul-2018
HD Live streaming from Space Station
objects crossing your sky now

SUCHAI

Track SUCHAI now!
10-day predictions
SUCHAI is classified as:


NORAD ID: 42788
Int'l Code: 2017-036Z
Perigee: 499.4 km
Apogee: 514.3 km
Inclination: 97.4 °
Period: 94.6 minutes
Semi major axis: 6877 km
RCS: Unknown
Launch date: June 23, 2017
Source: Chile (CHLE)
Launch site: SRIHARIKOTA (SRI)
Uplink (MHz):
Downlink (MHz): 437.225
Beacon (MHz): 437.229
Mode: CW
Call sign: SUCHAI
Status: Active

aabbcc
Your satellite tracking list
Your tracking list is empty




NASA's NSSDC Master Catalog

Two Line Element Set (TLE):
1 42788U 17036Z   18201.60272672  .00001098  00000-0  51082-4 0  9998
2 42788  97.3989 260.9405 0010837 326.3572  33.6975 15.22018652 59671
Source of the keplerian elements: AFSPC